This demonstration page uses our WeatherBlox Daily Observations layout. Learn more.

Left ArrowRight Arrow

Hourly Observations for July 10, 2018

Temp ( °F °C ) Dew Point ( °F °C ) Humidity (%) Winds ( mph kmh ) Pressure ( in mb ) Visibility ( mi km ) Precip ( " mm )
12:53 am 00:53 Clear 72 22.2 49 9.4 44 44 ENE 10 17 29.90 1013 10 16 0.00 0.00
1:53 am 01:53 Clear 72 22.2 49 9.4 44 44 ENE 14 22 29.88 1012 10 16 0.00 0.00
2:53 am 02:53 Clear 71 21.7 50 10 47 47 ENE 14 22 29.87 1012 10 16 0.00 0.00
3:53 am 03:53 Clear 69 20.6 51 10.6 53 53 E 14 22 29.86 1011 10 16 0.00 0.00
4:53 am 04:53 Clear 67 19.4 52 11.1 59 59 E 14 22 29.85 1011 10 16 0.00 0.00
5:07 am 05:07 Clear with Thunderstorms 68 20 52 11.1 57 57 E 16 26 29.85 1011 10 16 0.00 0.00
5:36 am 05:36 Sunny 66 19 55 13 68 68 E 17 28 29.83 1010 10 16 0.00 0.00
5:53 am 05:53 Sunny 67 19.4 58 14.4 73 73 ENE 18 30 29.83 1010 10 16 0.00 0.00
6:53 am 06:53 Sunny 67 19.4 60 15.6 79 79 E 15 24 29.84 1010 10 16 0.00 0.00
7:12 am 07:12 Sunny with Nearby Thunderstorms 66 19 61 16 83 83 E 12 19 29.80 1009 10 16 0.00 0.00
7:27 am 07:27 Sunny 67 19.4 61 16.1 81 81 E 12 19 29.83 1010 10 16 0.00 0.00
7:53 am 07:53 Sunny 71 21.7 62 16.7 73 73 E 10 17 29.82 1010 10 16 0.00 0.00
8:53 am 08:53 Sunny 76 24.4 63 17.2 64 64 E 9 15 29.82 1010 10 16 0.00 0.00
9:53 am 09:53 Sunny 80 26.7 64 17.8 58 58 ENE 5 7 29.83 1010 10 16 0.00 0.00
10:53 am 10:53 Sunny 84 28.9 65 18.3 53 53 E 13 20 29.78 1009 10 16 0.00 0.00
11:53 am 11:53 Sunny 92 33.3 66 18.9 43 43 ENE 18 30 29.73 1007 10 16 0.00 0.00
12:53 pm 12:53 Sunny 93 33.9 67 19.4 42 42 ENE 18 30 29.70 1006 10 16 0.00 0.00
1:53 pm 13:53 Sunny 99 37.2 59 15 27 27 WSW 12 19 29.75 1008 10 16 0.00 0.00
2:53 pm 14:53 Sunny 101 38.3 59 15 25 25 W 9 15 29.74 1007 10 16 0.00 0.00
3:53 pm 15:53 Sunny 101 38.3 54 12.2 21 21 WSW 28 44 29.62 1003 10 16 0.00 0.00
4:53 pm 16:53 Sunny 94 34.4 55 12.8 27 27 NW 37 59 29.64 1004 9 14 0.00 0.00
5:00 pm 17:00 Sunny 91 33 55 13 30 30 NW 38 61 29.50 999 9 14 0.00 0.00
5:53 pm 17:53 Sunny 86 30 57 13.9 37 37 NW 33 54 29.75 1008 10 16 0.00 0.00
6:53 pm 18:53 Sunny 82 27.8 53 11.7 37 37 NW 16 26 29.81 1010 10 16 0.00 0.00
7:53 pm 19:53 Sunny 78 25.6 55 12.8 45 45 NW 17 28 29.85 1011 10 16 0.00 0.00
8:53 pm 20:53 Sunny 74 23.3 55 12.8 52 52 NW 12 19 29.88 1012 10 16 0.00 0.00
9:53 pm 21:53 Clear 71 21.7 55 12.8 57 57 NW 9 15 29.89 1012 10 16 0.00 0.00
10:53 pm 22:53 Clear 66 18.9 55 12.8 68 68 WSW 3 6 29.91 1013 10 16 0.00 0.00
11:53 pm 23:53 Clear 62 16.7 54 12.2 75 75 SW 8 13 29.91 1013 10 16 0.00 0.00

Powered by AerisWeather